TimePDT,TemperatureF,Dew PointF,Humidity,Sea Level PressureIn,VisibilityMPH,Wind Direction,Wind SpeedMPH,Gust SpeedMPH,PrecipitationIn,Events,Conditions,WindDirDegrees,DateUTC
12:53 AM,91.0,54.0,28,29.78,10.0,Calm,Calm,-,N/A,,Clear,0,2013-07-15 07:53:00
1:53 AM,89.1,54.0,30,29.77,10.0,ENE,3.5,-,N/A,,Clear,60,2013-07-15 08:53:00
2:53 AM,87.1,54.0,32,29.77,10.0,Calm,Calm,-,N/A,,Clear,0,2013-07-15 09:53:00
3:53 AM,87.1,55.0,33,29.76,10.0,ENE,4.6,-,N/A,,Clear,70,2013-07-15 10:53:00
4:53 AM,87.1,55.0,33,29.77,10.0,Calm,Calm,-,N/A,,Clear,0,2013-07-15 11:53:00
5:53 AM,87.1,53.1,31,29.78,10.0,East,5.8,-,N/A,,Clear,90,2013-07-15 12:53:00
6:53 AM,89.1,55.0,31,29.79,10.0,NE,3.5,-,N/A,,Clear,50,2013-07-15 13:53:00
7:53 AM,91.9,53.1,27,29.80,10.0,Calm,Calm,-,N/A,,Clear,0,2013-07-15 14:53:00
8:53 AM,93.9,51.1,23,29.80,10.0,ESE,5.8,-,N/A,,Clear,120,2013-07-15 15:53:00
9:53 AM,95.0,48.0,20,29.80,10.0,SSE,6.9,-,N/A,,Clear,150,2013-07-15 16:53:00
10:53 AM,98.1,43.0,15,29.78,10.0,SSE,5.8,-,N/A,,Clear,150,2013-07-15 17:53:00
11:53 AM,102.0,43.0,13,29.76,-9999.0,Variable,4.6,-,N/A,,Partly Cloudy,0,2013-07-15 18:53:00
12:53 PM,102.0,44.1,14,29.73,10.0,SE,8.1,-,N/A,,Clear,130,2013-07-15 19:53:00
1:53 PM,102.9,45.0,14,29.71,10.0,WSW,10.4,-,N/A,,Clear,250,2013-07-15 20:53:00
2:53 PM,105.1,43.0,12,29.68,10.0,SW,12.7,19.6,N/A,,Clear,230,2013-07-15 21:53:00
3:53 PM,105.1,43.0,12,29.65,10.0,Variable,4.6,-,N/A,,Clear,0,2013-07-15 22:53:00
4:53 PM,106.0,43.0,12,29.63,10.0,SSW,8.1,-,N/A,,Clear,200,2013-07-15 23:53:00
5:53 PM,106.0,43.0,12,29.62,10.0,West,6.9,16.1,N/A,,Clear,280,2013-07-16 00:53:00
6:53 PM,104.0,43.0,13,29.62,10.0,WSW,12.7,17.3,N/A,,Clear,240,2013-07-16 01:53:00
7:53 PM,102.9,41.0,12,29.64,10.0,West,4.6,-,N/A,,Clear,260,2013-07-16 02:53:00
8:53 PM,98.1,50.0,20,29.66,10.0,SE,11.5,-,N/A,,Clear,130,2013-07-16 03:53:00
9:53 PM,97.0,48.9,19,29.69,10.0,SE,5.8,-,N/A,,Clear,130,2013-07-16 04:53:00
10:53 PM,95.0,51.1,22,29.69,10.0,South,11.5,-,N/A,,Clear,190,2013-07-16 05:53:00
11:53 PM,93.9,39.9,15,29.70,10.0,SSW,8.1,-,N/A,,Clear,210,2013-07-16 06:53:00